GEFSMA_con_prob3kmehi_186.txt.gz
EHI
0 0 0 0 0 0 0 0 0 0 0 0 0 0 0 0 0 0 0 1 3 4 4 1 0 0 0 0 0 0 0 0 0 0 0 0 0 0 0 0 0 0 0
0 0 0 0 0 0 0 0 0 0 0 0 0 0 0 0 0 0 0 0 2 3 3 2 1 0 0 0 0 0 0 0 0 0 0 0 0 0 0 0 0 0 0
0 0 0 0 0 0 0 0 0 0 0 0 0 0 0 0 0 0 0 0 0 1 2 3 2 1 0 0 0 0 0 0 0 0 0 0 0 0 0 0 0 0 0
0 0 0 0 0 0 0 0 0 0 0 0 0 0 0 0 0 0 0 0 0 0 1 2 3 2 1 0 0 0 0 0 0 0 0 0 0 0 0 0 0 0 0
0 0 0 0 0 0 0 0 0 0 0 0 0 0 0 0 0 0 0 0 0 0 0 1 2 2 1 0 0 0 0 0 0 0 0 0 0 0 0 0 0 0 0
0 0 0 0 0 0 0 0 0 0 0 0 0 0 0 0 0 0 0 0 0 0 0 0 1 1 0 0 0 0 0 0 1 1 0 0 0 0 0 0 0 0 0
1 1 1 0 0 0 0 0 0 0 0 0 0 0 0 0 0 0 0 0 0 0 0 0 0 0 0 0 0 0 0 0 1 1 1 0 0 0 0 0 0 0 0
0 1 1 0 0 1 0 0 0 0 0 0 0 0 0 0 0 0 0 0 0 0 0 0 0 0 0 0 0 0 0 0 1 1 1 1 1 1 0 0 0 0 0
1 1 1 0 0 0 0 0 0 0 0 0 0 0 0 0 0 0 0 0 0 0 0 0 0 0 0 0 0 0 0 0 0 0 1 1 2 1 0 0 0 0 0
3 3 2 0 0 0 0 0 0 0 0 0 0 0 0 0 0 0 0 0 0 0 0 0 0 0 0 0 0 0 0 0 0 0 0 2 2 1 0 0 0 0 0
5 5 3 1 1 0 0 0 0 0 1 0 0 0 0 0 0 0 0 0 0 0 0 0 0 0 0 0 0 0 0 0 0 0 0 1 1 1 0 0 0 0 0
5 5 5 3 2 1 0 0 0 0 0 0 0 0 0 0 0 0 0 0 0 0 0 0 0 0 0 0 0 0 0 0 0 0 0 0 0 0 0 0 0 0 0
4 4 5 4 2 1 0 0 0 0 0 0 0 0 0 0 0 0 0 0 0 0 0 0 0 0 0 0 0 0 0 0 0 0 0 0 0 0 0 0 0 0 0
3 3 4 3 2 0 0 0 0 0 0 0 0 0 0 0 0 0 0 0 0 0 0 0 0 0 0 0 0 0 0 0 0 0 0 0 0 0 0 0 0 0 0
3 3 3 2 1 0 0 0 0 0 0 0 0 0 0 0 0 0 0 0 0 0 0 0 0 0 0 0 0 0 0 0 0 0 0 0 0 0 0 0 0 0 0
3 3 2 1 1 0 0 0 0 0 0 0 0 0 0 0 0 0 0 0 0 0 0 0 0 0 0 0 0 0 0 0 0 0 0 0 0 0 0 0 0 0 0
2 1 1 0 0 0 0 0 0 0 0 0 0 0 0 0 0 0 0 0 0 0 0 0 0 0 0 0 0 0 0 0 0 0 0 0 0 0 0 0 0 0 0
2 1 0 0 0 0 0 0 0 0 0 0 0 0 0 0 0 0 0 0 0 0 0 0 0 0 0 0 0 0 0 0 0 0 0 0 0 0 0 0 0 0 0
1 0 0 0 0 0 0 0 0 0 0 0 0 0 0 0 0 0 0 0 0 0 0 0 0 0 0 0 0 0 0 0 0 0 0 0 0 0 0 0 0 0 0
0 0 0 0 0 0 0 0 0 0 0 0 0 0 0 0 0 0 0 0 0 0 0 0 0 0 0 0 0 0 0 0 0 0 0 0 0 0 0 0 0 0 0
0 0 0 0 0 0 0 0 0 0 0 0 0 0 0 0 0 0 0 0 0 0 0 0 0 0 0 0 0 0 0 0 0 0 0 0 0 0 0 0 0 0 0
0 0 0 0 0 0 0 0 0 0 0 0 0 0 0 0 0 0 0 0 0 0 0 0 0 0 0 0 0 0 0 0 0 0 0 0 0 0 0 0 0 0 0
0 0 0 0 0 0 0 0 0 0 0 0 0 0 0 0 0 0 0 0 0 0 0 0 0 0 0 0 0 0 0 0 0 0 0 0 0 0 0 0 0 0 0
0 0 0 0 0 0 0 0 0 0 0 0 0 0 0 0 0 0 0 0 0 0 0 0 0 0 0 0 0 0 0 0 0 0 0 0 0 0 0 0 0 0 0
0 0 0 0 0 0 0 0 0 0 0 0 0 0 0 0 0 0 0 0 0 0 0 0 0 0 0 0 0 0 0 0 0 0 0 0 0 0 0 0 0 0 0
0 0 0 0 0 0 0 0 0 0 0 0 0 0 0 0 0 0 0 0 0 0 0 0 0 0 0 0 0 0 0 0 0 0 0 0 0 0 0 0 0 0 0

GEFSMA_con_prob3kmehi_192.txt.gz
EHI
6 6 6 6 4 4 5 6 5 5 5 6 6 5 4 4 5 6 6 6 6 6 6 6 6 6 6 6 6 6 6 6 6 6 6 6 6 6 6 6 6 6 6
6 6 6 5 4 4 4 5 5 5 5 6 6 5 4 4 5 5 6 6 6 6 6 6 6 6 6 6 6 6 6 6 6 6 6 6 6 6 6 6 6 6 6
8 7 6 5 4 4 5 6 7 6 6 6 6 6 4 3 4 5 5 4 4 5 6 6 7 7 7 7 6 6 6 6 6 6 6 6 6 6 6 6 6 6 6
10 9 8 6 6 6 7 8 8 7 6 6 6 6 4 3 4 5 4 2 1 2 4 6 7 8 8 7 7 6 6 6 6 6 6 6 6 6 6 6 6 6 6
11 11 10 9 9 8 8 8 8 7 6 6 6 5 4 3 3 4 3 1 0 1 3 5 7 9 9 9 7 7 6 6 6 6 6 6 6 6 6 6 6 6 6
11 11 12 12 11 10 9 9 8 7 6 6 6 5 4 3 3 4 3 1 1 1 2 4 6 8 9 9 8 7 7 6 6 6 6 6 6 6 6 6 6 6 6
13 13 13 13 12 11 9 9 8 7 6 6 6 6 5 4 5 5 5 3 1 1 1 3 6 7 9 9 9 8 7 7 7 7 6 6 7 7 7 6 6 6 6
17 17 16 15 14 12 10 10 10 9 8 8 8 7 6 6 6 5 6 5 4 3 3 3 5 7 8 9 9 7 7 7 7 7 7 7 7 7 7 7 6 6 6
21 21 20 19 17 16 15 14 13 12 10 10 12 11 8 7 6 5 6 6 6 7 6 4 4 6 7 8 8 7 6 7 7 8 8 7 7 7 8 7 7 6 6
21 22 22 22 20 19 19 18 16 16 14 13 15 14 10 7 6 5 5 6 7 8 8 5 3 4 5 6 7 6 6 6 7 8 7 7 7 7 8 9 8 7 7
21 21 22 23 22 21 19 18 19 19 18 16 15 15 12 9 6 6 5 5 6 7 6 5 3 3 4 5 6 5 5 5 5 6 7 7 7 7 9 10 9 8 7
21 21 23 24 25 23 21 18 19 20 21 19 18 16 14 10 8 7 6 5 5 5 6 5 4 4 4 5 5 4 3 2 2 4 5 6 7 7 8 10 10 9 8
19 21 24 25 25 25 22 17 16 18 20 21 22 22 19 14 12 10 8 5 4 4 5 5 5 5 4 5 6 4 2 1 0 1 2 4 5 6 7 8 9 9 8
16 21 25 25 24 22 20 16 16 18 20 21 23 25 25 20 16 13 11 8 5 4 5 6 6 6 6 6 6 4 3 1 0 0 0 1 2 3 4 5 7 8 7
17 20 25 24 20 19 19 18 17 18 19 19 21 23 24 21 17 15 14 13 10 6 5 6 6 7 8 8 5 3 3 2 1 0 0 0 0 1 1 2 4 5 4
22 23 24 21 17 16 17 18 19 19 18 18 18 19 20 19 18 17 16 16 15 10 4 3 5 8 10 9 5 3 3 3 1 0 0 0 0 0 0 0 1 1 1
26 27 25 21 16 14 15 18 19 18 17 17 16 16 15 14 15 18 17 15 14 11 5 2 4 8 12 11 7 5 4 3 2 1 0 0 0 0 0 0 0 0 0
25 26 26 24 19 16 17 17 16 15 15 14 12 11 9 8 11 15 15 12 9 8 6 3 4 9 13 12 9 7 5 4 3 1 0 0 0 0 0 0 0 0 0
22 23 24 22 19 17 17 16 13 10 9 9 8 7 6 6 7 10 9 7 6 6 5 3 3 8 11 11 9 8 7 7 5 2 0 0 0 0 0 0 0 0 0
21 21 20 18 16 14 14 13 11 8 5 5 6 6 6 5 4 4 3 3 4 5 4 2 2 5 8 9 8 8 9 10 6 3 1 1 0 0 0 0 0 0 0
18 19 18 15 12 10 8 8 8 7 6 5 6 7 5 3 1 1 1 2 3 4 4 4 3 4 5 6 7 8 9 8 6 4 3 2 2 2 0 0 0 0 0
15 16 15 12 8 6 4 3 4 6 7 6 6 6 4 1 0 0 0 1 1 2 3 4 4 3 3 4 5 6 6 5 4 4 4 4 4 4 2 0 0 0 0
13 13 11 9 7 5 2 0 1 3 5 6 6 5 3 1 0 0 1 0 0 0 1 2 2 1 2 3 3 3 4 4 4 4 5 5 5 5 3 1 0 0 0
13 11 8 6 6 5 2 0 1 2 3 4 5 4 5 4 1 1 2 2 0 0 0 0 0 0 1 2 2 1 2 3 3 4 5 4 4 4 3 2 1 0 0
15 12 8 6 5 4 2 0 1 2 3 4 4 4 5 5 2 1 2 3 1 0 0 0 0 0 0 1 1 1 1 2 1 3 5 5 4 4 3 2 1 0 0
18 14 10 6 6 6 3 1 1 3 5 6 6 5 4 3 1 1 2 3 1 0 0 0 0 0 0 0 1 1 1 1 1 2 5 6 4 3 2 1 0 0 0

GEFSMA_con_prob3kmehi_198.txt.gz
EHI
2 3 4 3 2 3 4 3 1 0 0 0 1 2 3 2 1 2 4 5 4 2 0 0 1 1 0 0 0 0 0 0 0 0 0 0 0 0 0 0 0 0 0
5 5 3 2 2 3 4 3 2 1 0 0 1 1 3 3 2 3 5 5 4 3 1 1 2 2 1 0 0 0 0 0 0 0 0 0 0 0 0 0 0 0 0
7 5 3 2 2 3 4 4 4 4 1 0 1 1 3 6 6 6 7 7 6 5 3 2 3 3 2 1 1 0 0 0 0 0 0 0 0 0 0 0 0 0 0
7 5 3 3 4 3 2 2 5 5 3 1 1 1 4 8 9 7 8 9 9 9 7 5 4 3 3 3 2 2 2 1 1 0 0 0 0 0 0 0 0 0 0
9 7 6 8 8 5 2 3 5 6 3 1 0 1 4 7 9 9 8 8 10 12 12 9 6 4 3 3 4 4 4 3 2 1 0 1 1 0 0 0 0 0 0
12 9 10 14 14 9 6 6 8 7 5 3 2 1 2 6 9 12 12 8 8 11 15 15 12 8 6 5 6 6 6 5 3 1 1 1 1 1 1 0 0 0 0
18 13 12 17 17 14 13 13 11 9 8 8 5 2 1 4 8 13 17 14 9 9 15 20 20 16 12 9 9 9 9 7 4 3 2 1 1 2 2 1 0 0 0
26 21 19 21 21 20 19 17 16 14 11 11 9 5 2 3 5 9 16 18 13 12 15 18 22 23 20 15 12 10 11 10 8 7 5 2 1 1 1 1 0 0 0
31 29 28 28 28 27 23 20 19 18 15 12 11 8 4 2 2 5 9 13 15 18 16 13 16 22 24 21 16 12 10 9 9 11 11 8 3 1 0 0 0 1 1
32 32 33 34 34 31 27 21 18 19 17 13 12 11 8 5 2 2 4 6 11 17 16 11 11 18 23 25 23 17 10 5 6 10 12 11 8 3 1 1 1 2 2
32 32 35 37 35 32 28 24 21 20 17 15 13 14 14 11 6 3 1 2 5 10 13 13 13 17 22 26 27 21 10 3 2 5 8 9 9 7 5 3 2 2 2
36 36 38 40 39 33 30 29 28 25 21 19 16 15 15 14 11 6 1 0 1 4 10 15 17 17 20 25 25 17 8 2 0 1 3 4 6 7 6 4 2 1 1
39 42 44 46 45 38 32 30 31 28 25 23 19 16 13 12 11 7 3 1 0 2 7 13 16 15 16 22 23 14 5 1 0 0 1 1 2 3 4 3 1 0 0
34 41 47 49 47 41 33 29 28 27 26 24 21 17 13 10 8 5 4 2 0 0 3 7 10 11 13 18 18 12 6 3 0 0 0 0 0 1 1 1 0 0 0
32 39 45 45 43 40 36 32 27 25 26 25 22 20 16 13 8 6 7 5 2 1 1 2 4 8 11 12 9 10 11 6 1 0 0 0 0 0 0 0 0 0 0
37 40 42 42 42 41 41 38 30 26 26 25 23 21 19 16 12 9 8 7 4 3 2 1 2 6 8 5 3 8 12 7 1 0 0 0 0 0 0 0 0 0 0
40 41 42 42 42 41 41 39 32 26 24 23 22 20 17 15 13 9 7 6 6 6 4 1 1 4 6 5 4 5 6 5 2 0 0 0 0 0 0 0 0 0 0
43 42 40 40 39 38 37 36 30 23 20 19 19 18 15 14 13 10 7 6 6 7 5 2 1 2 5 6 6 4 2 2 2 0 0 0 0 0 0 0 0 0 0
45 42 40 39 37 33 31 31 27 20 17 18 19 18 15 14 14 12 9 7 6 5 3 1 0 1 2 4 5 3 1 1 1 0 0 0 0 0 0 0 0 0 0
41 41 40 37 33 27 24 26 25 20 16 16 17 16 14 13 13 11 9 6 4 3 1 0 0 0 1 3 3 2 0 0 0 1 1 1 0 0 0 0 0 0 0
35 37 36 32 26 20 17 18 20 18 15 13 13 12 11 10 9 7 5 4 3 2 0 0 0 0 1 2 2 1 0 0 0 1 2 2 1 0 0 0 0 0 0
29 29 28 26 21 14 9 9 11 13 13 11 10 9 8 6 5 3 2 2 2 1 0 0 0 0 0 1 1 0 0 0 0 1 2 1 1 1 1 0 0 0 0
24 25 25 23 19 11 4 2 4 7 10 10 9 8 7 4 2 2 1 1 1 0 0 0 1 1 1 1 0 0 0 0 0 0 0 0 1 2 2 0 0 0 0
22 23 23 21 16 9 3 0 1 3 7 8 8 8 7 5 2 2 2 1 1 1 0 0 1 1 1 0 0 0 0 0 0 0 0 1 1 1 1 0 0 0 0
18 19 20 19 15 9 3 0 1 3 6 7 7 7 6 5 2 1 1 1 1 1 0 0 1 1 0 0 0 0 0 0 0 0 1 2 2 1 0 0 0 0 0
14 16 18 17 13 9 5 1 1 4 6 6 6 6 5 4 2 0 0 1 1 1 0 0 0 0 0 0 0 0 0 0 0 0 1 2 3 2 1 0 0 0 0

GEFSMA_con_prob3kmehi_204.txt.gz
EHI
0 0 0 0 0 0 0 0 0 0 0 0 0 0 0 0 0 0 1 4 6 7 7 5 4 2 1 1 0 0 0 0 0 0 0 0 0 0 0 0 0 0 0
0 0 0 0 0 0 0 0 0 0 0 0 0 0 0 0 0 0 1 3 4 6 7 7 6 5 3 2 1 0 0 0 0 0 0 0 0 0 0 0 0 0 0
0 0 0 0 0 0 0 0 0 0 0 0 0 0 0 0 0 0 0 1 2 4 7 9 9 7 5 3 2 1 0 0 0 0 0 0 0 0 0 0 0 0 0
0 0 0 0 0 0 0 0 0 0 0 0 0 0 0 0 0 0 0 0 1 2 5 7 9 8 7 5 4 3 2 1 1 1 0 0 0 0 0 0 0 0 0
1 1 1 0 0 0 0 0 0 0 0 0 0 0 0 0 0 0 0 0 0 1 2 4 7 9 9 8 7 7 5 5 4 2 1 0 0 0 0 0 0 0 0
3 3 2 0 0 0 0 0 0 0 0 0 0 0 0 0 0 0 0 0 0 0 0 1 4 7 9 10 10 9 9 9 8 5 3 1 0 0 0 0 0 0 0
6 5 2 0 0 0 0 0 0 0 0 0 0 0 0 0 0 0 0 0 0 0 0 1 2 3 6 9 9 10 11 11 11 8 5 3 1 0 0 0 0 0 0
6 5 3 1 0 0 0 0 0 0 0 0 0 0 0 0 0 0 0 0 0 0 0 0 1 1 2 3 4 8 12 13 12 11 8 6 3 1 0 0 0 0 0
7 6 4 2 0 0 0 0 0 0 0 0 0 0 0 0 0 0 0 0 0 0 0 0 0 0 0 0 0 4 8 11 11 10 9 8 6 4 2 0 0 0 0
10 10 7 3 2 1 1 0 0 0 0 0 0 0 0 0 0 0 0 0 0 0 0 0 0 0 0 0 0 1 2 4 6 7 8 9 9 8 5 2 1 0 0
12 11 9 7 6 6 3 1 1 0 0 0 0 0 0 0 0 0 0 0 0 0 0 0 0 0 0 0 0 0 0 0 1 3 5 8 11 11 8 5 2 1 1
13 11 10 10 11 10 6 4 3 1 1 1 0 0 0 0 0 0 0 0 0 0 0 0 0 0 0 0 0 0 0 0 0 0 2 5 7 8 7 5 3 3 2
13 11 9 9 11 10 7 5 5 4 3 2 1 0 0 0 0 0 0 0 0 0 0 0 0 0 0 0 0 0 0 0 0 0 0 1 2 3 4 4 3 3 3
11 10 8 8 9 8 6 6 6 5 4 3 2 0 0 0 0 0 0 0 0 0 0 0 0 0 0 0 0 0 0 0 0 0 0 0 0 0 1 1 1 1 2
9 8 7 6 7 7 6 6 6 6 5 3 2 0 0 0 0 0 0 0 0 0 0 0 0 0 0 0 0 0 0 0 0 0 0 0 0 0 0 0 0 0 1
7 7 6 5 5 7 8 7 6 5 4 3 2 1 0 0 0 0 0 0 0 0 0 0 0 0 0 0 0 0 0 0 0 0 0 0 0 0 0 0 0 0 0
9 9 8 7 8 9 10 9 7 5 4 3 3 2 1 0 0 0 0 0 0 0 0 0 0 0 0 0 0 0 0 0 0 0 0 0 0 0 0 0 0 0 0
14 12 11 11 11 11 10 9 8 7 5 4 4 3 2 1 0 0 0 0 0 0 0 0 0 0 0 0 0 0 0 0 0 0 0 0 0 0 0 0 0 0 0
14 13 12 11 10 10 9 8 8 8 8 6 5 3 2 1 0 0 0 0 0 0 0 0 0 0 0 0 0 0 0 0 0 0 0 0 0 0 0 0 0 0 0
13 12 11 10 9 8 8 7 7 8 8 7 4 2 1 0 0 0 0 0 0 0 0 0 0 0 0 0 0 0 0 0 0 0 0 0 0 0 0 0 0 0 0
12 12 11 10 8 7 7 7 7 8 8 6 3 1 0 0 0 0 0 0 0 0 0 0 0 0 0 0 0 0 0 0 0 0 0 0 0 0 0 0 0 0 0
12 11 9 8 7 6 5 5 6 7 7 6 3 1 0 0 0 0 0 0 0 0 0 0 0 0 0 0 0 0 0 0 0 0 0 0 0 0 0 0 0 0 0
12 10 7 7 6 6 4 2 2 4 5 5 4 2 1 0 0 0 0 0 0 0 0 0 0 0 0 0 0 0 0 0 0 0 0 0 0 0 0 0 0 0 0
10 8 7 6 6 6 4 1 0 1 2 3 3 2 1 0 0 0 0 0 0 0 0 0 0 0 0 0 0 0 0 0 0 0 0 0 0 0 0 0 0 0 0
9 7 6 6 6 6 5 2 0 0 0 1 1 1 0 0 0 0 0 0 0 0 0 0 0 0 0 0 0 0 0 0 0 0 0 0 0 0 0 0 0 0 0
9 7 6 6 6 6 5 2 0 0 0 0 0 0 0 0 0 0 0 0 0 0 0 0 0 0 0 0 0 0 0 0 0 0 0 0 0 0 0 0 0 0 0

GEFSMA_con_prob3kmehi_210.txt.gz
EHI
0 0 0 0 0 0 0 0 0 0 0 0 0 0 0 0 0 0 0 2 5 6 5 4 2 0 0 1 1 2 3 1 0 0 0 0 0 0 0 0 0 0 0
0 0 0 0 0 0 0 0 0 0 0 0 0 0 0 0 0 0 0 1 3 5 6 5 3 1 1 1 1 2 3 2 1 0 0 0 0 0 0 0 0 0 0
0 0 0 0 0 0 0 0 0 0 0 0 0 0 0 0 0 0 0 0 1 3 5 5 4 2 2 2 1 2 3 3 2 1 0 0 0 0 0 0 0 0 0
1 0 0 0 0 0 0 0 0 0 0 0 0 0 0 0 0 0 0 0 0 1 1 2 3 3 2 2 1 2 2 2 2 2 1 0 0 0 0 0 0 0 0
1 1 0 0 0 0 0 0 0 0 0 0 0 0 0 0 0 0 0 0 0 0 0 0 1 1 1 1 2 2 2 1 1 2 1 0 0 0 0 0 0 0 0
1 1 1 1 0 0 0 0 0 0 0 0 0 0 0 0 0 0 0 0 0 0 0 0 0 0 0 1 2 3 3 2 2 2 2 1 1 1 0 0 0 0 0
0 1 1 1 0 0 0 0 0 0 0 0 0 0 0 0 0 0 0 0 0 0 0 1 0 0 0 0 1 2 3 3 4 4 4 3 3 2 1 0 0 0 0
0 0 0 0 0 0 0 0 0 0 0 0 0 0 0 0 0 0 0 0 0 0 0 0 0 0 0 0 0 1 1 2 3 4 5 4 3 2 1 0 0 0 0
0 0 0 1 1 1 0 0 0 0 0 0 0 0 0 0 0 0 0 0 0 0 0 0 0 0 0 0 0 0 0 1 1 2 2 2 1 1 1 1 1 0 0
0 0 1 2 2 1 0 0 0 0 0 0 1 1 0 0 0 0 0 0 0 0 0 0 0 0 0 0 0 0 0 0 0 0 0 0 0 0 1 1 1 0 0
0 0 1 1 2 1 0 0 0 0 0 0 1 2 1 0 0 0 0 0 0 0 0 0 0 0 0 0 0 0 0 0 0 0 0 0 0 0 0 1 1 0 0
0 0 0 0 0 0 0 0 0 0 0 0 1 2 2 1 0 0 0 0 0 0 0 0 0 0 0 0 0 0 0 0 0 0 0 0 0 0 0 0 0 0 0
1 0 0 0 1 1 1 1 1 1 1 1 0 1 2 2 1 0 0 0 0 0 0 0 0 0 0 0 0 0 0 0 0 0 0 0 0 0 0 0 0 0 0
1 0 0 1 2 2 2 3 3 3 3 3 1 1 2 2 1 0 0 0 0 0 0 0 0 0 0 0 0 0 0 0 0 0 0 0 0 0 0 0 0 0 0
1 1 2 3 3 3 3 4 5 5 5 5 3 2 2 1 1 0 0 0 0 0 0 0 0 0 0 0 0 0 0 0 0 0 0 0 0 0 0 0 0 0 0
1 2 3 4 3 3 3 4 6 6 6 5 3 2 1 0 0 0 0 0 0 0 0 0 0 0 0 0 0 0 0 0 0 0 0 0 0 0 0 0 0 0 0
2 3 3 3 3 3 4 5 6 6 5 3 2 2 1 1 0 0 0 0 0 0 0 0 0 0 0 0 0 0 0 0 0 0 0 0 0 0 0 0 0 0 0
3 3 3 3 3 4 5 6 6 5 2 1 1 2 2 1 0 0 0 0 0 0 0 0 0 0 0 0 0 0 0 0 0 0 0 0 0 0 0 0 0 0 0
3 3 3 4 4 5 5 5 4 3 1 0 1 2 2 2 0 0 0 0 0 0 0 0 0 0 0 0 0 0 0 0 0 0 0 0 0 0 0 0 0 0 0
4 3 4 4 4 4 5 4 3 2 1 0 1 1 2 1 0 0 0 0 0 0 0 0 0 0 0 0 0 0 0 0 0 0 0 0 0 0 0 0 0 0 0
5 4 3 4 4 3 3 3 3 2 2 1 1 1 1 1 0 0 0 0 0 0 0 0 0 0 0 0 0 0 0 0 0 0 0 0 0 0 0 0 0 0 0
6 4 4 3 3 2 1 1 1 2 3 3 2 2 1 0 0 0 0 0 0 0 0 0 0 0 0 0 0 0 0 0 0 0 0 0 0 0 0 0 0 0 0
7 6 5 4 2 1 0 0 0 1 2 3 3 2 1 0 0 0 0 0 0 0 0 0 0 0 0 0 0 0 0 0 0 0 0 0 0 0 0 0 0 0 0
9 9 7 5 3 2 1 0 0 0 1 1 2 2 1 0 0 0 0 0 0 0 0 0 0 0 0 0 0 0 0 0 0 0 0 0 0 0 0 0 0 0 0
11 10 8 5 4 2 1 0 0 1 1 1 1 1 0 0 0 0 0 0 0 0 0 0 0 0 0 0 0 0 0 0 0 0 0 0 0 0 0 0 0 0 0
10 9 7 5 4 2 1 0 1 2 3 3 1 0 0 0 0 0 0 0 0 0 0 0 0 0 0 0 0 0 0 0 0 0 0 0 0 0 0 0 0 0 0

GEFSMA_con_prob3kmehi_216.txt.gz
EHI
1 0 0 0 0 0 0 0 0 0 0 0 0 0 0 0 0 0 1 2 2 1 0 0 0 0 0 0 0 0 0 0 0 0 0 0 0 0 0 0 0 0 0
1 1 0 0 0 0 0 0 0 0 0 0 0 0 0 0 0 0 0 1 2 1 0 0 0 0 0 0 0 0 0 0 0 0 0 0 0 0 0 0 0 0 0
2 2 1 0 0 0 0 0 0 0 0 0 0 0 0 0 0 0 0 0 1 1 0 0 0 0 0 0 0 0 0 1 1 0 0 0 0 0 0 0 0 0 0
4 3 2 0 0 0 0 0 0 0 0 0 0 0 0 1 0 0 0 0 1 0 0 2 2 2 1 0 0 0 0 1 1 0 0 0 0 0 0 0 0 0 0
4 4 4 2 1 1 1 0 0 1 1 1 0 0 1 1 0 0 0 0 1 0 0 2 4 3 2 1 1 0 0 0 0 0 0 0 0 0 0 0 0 0 0
4 3 4 3 3 2 1 1 1 2 2 1 0 1 2 2 1 0 0 0 1 0 0 1 2 2 2 2 1 0 0 0 0 0 1 1 0 0 0 0 0 0 0
3 3 4 5 5 4 3 3 3 3 2 2 1 1 2 2 1 1 0 0 0 0 0 0 0 1 3 4 2 0 0 0 0 1 1 1 1 1 1 0 0 0 0
4 5 7 8 7 7 6 5 5 5 3 2 3 3 2 1 1 1 1 1 1 0 0 0 0 0 2 4 2 0 0 1 1 1 1 1 2 2 1 1 1 0 0
5 6 8 9 9 9 8 8 7 7 5 4 4 5 3 2 1 1 2 3 2 1 0 0 0 1 2 3 3 1 0 1 1 1 0 1 1 2 2 2 1 0 0
8 8 9 10 9 8 9 9 8 9 8 7 7 7 6 5 4 3 3 4 3 2 1 0 1 3 4 5 5 2 0 0 0 0 0 1 1 1 1 1 1 0 0
9 8 9 10 10 9 9 10 10 9 9 10 10 10 9 7 6 5 4 4 4 2 1 1 2 3 5 7 5 2 0 0 0 0 0 1 1 0 0 0 0 0 0
11 9 9 11 11 10 10 12 13 10 9 10 11 11 10 8 8 7 6 5 4 2 1 1 2 3 5 6 5 2 0 0 0 0 0 0 0 0 0 0 0 0 0
14 12 10 11 10 10 12 14 14 11 9 9 9 11 11 10 9 9 8 6 4 2 1 1 4 5 5 6 6 2 0 0 0 0 0 0 0 0 0 0 0 0 0
14 13 11 9 9 10 13 15 14 13 13 12 11 11 13 12 11 11 8 5 3 2 1 2 7 8 6 5 5 2 0 0 0 0 0 0 0 0 0 0 0 0 0
13 13 11 8 7 9 13 16 16 17 18 17 15 14 14 14 13 12 8 5 3 2 1 3 8 10 7 4 3 2 1 0 0 0 0 0 0 0 0 0 0 0 0
15 15 13 9 6 8 12 16 18 19 19 18 16 15 14 13 13 13 9 6 6 6 5 6 7 8 7 3 2 2 1 1 0 0 0 0 0 0 0 0 0 0 0
16 17 16 12 9 9 11 14 15 15 16 16 14 13 12 11 12 14 11 10 10 11 9 7 5 4 4 2 1 1 1 1 0 0 0 0 0 0 0 0 0 0 0
17 19 18 15 12 11 11 12 11 11 13 13 12 12 10 9 11 13 12 12 12 11 9 6 3 1 1 1 0 1 1 1 0 0 0 0 0 0 0 0 0 0 0
22 22 21 19 17 14 13 12 11 11 12 13 13 11 9 9 11 13 13 12 10 9 7 5 3 1 1 0 0 0 1 1 0 0 0 0 0 0 0 0 0 0 0
25 24 23 22 19 15 14 14 13 12 12 12 12 10 8 8 10 11 11 11 9 8 7 5 3 1 1 1 1 0 0 1 1 0 0 0 1 0 0 0 0 0 0
24 23 23 22 19 14 12 12 12 12 12 11 10 9 8 7 7 7 7 7 8 8 7 6 4 2 2 2 2 1 1 1 1 0 0 1 2 2 1 1 0 0 0
23 22 21 20 17 13 10 8 9 11 11 10 10 8 7 7 6 4 3 3 3 5 6 5 5 3 3 2 2 2 2 2 1 0 0 2 2 2 2 1 0 0 0
22 21 20 18 15 12 9 6 6 8 9 10 11 10 8 7 6 5 3 2 2 2 3 3 3 3 2 1 2 2 2 2 1 0 0 1 1 1 1 1 0 0 0
19 18 17 15 13 11 8 4 3 6 9 10 10 9 7 7 7 6 5 4 4 4 2 1 1 1 1 1 1 1 1 1 1 0 0 0 0 0 0 0 0 0 0
14 13 12 12 11 9 6 3 3 6 10 10 8 6 6 6 5 4 5 5 5 4 2 0 0 0 0 0 0 0 0 0 0 0 0 0 0 0 0 0 0 0 0
11 10 9 9 9 8 6 3 3 7 11 10 7 5 5 4 4 4 4 5 5 4 2 1 0 0 0 0 0 0 0 0 0 0 0 0 0 0 0 0 0 0 0

GEFSMA_con_prob3kmehi_222.txt.gz
EHI
0 1 4 6 7 6 4 2 1 2 4 5 5 5 6 5 4 6 10 16 19 16 12 9 6 5 4 3 1 0 0 0 0 0 1 1 0 0 0 0 0 0 0
3 2 3 4 4 4 4 2 1 2 4 5 6 6 6 5 5 7 11 16 19 18 15 12 9 6 4 3 2 1 1 0 0 1 2 2 1 0 0 0 0 0 0
7 5 3 1 2 3 4 4 4 3 4 4 5 6 5 6 8 10 13 16 18 19 17 15 12 10 7 5 4 3 3 2 0 1 2 3 2 1 0 0 0 0 0
10 9 5 2 1 3 4 6 6 4 3 3 4 4 5 8 10 11 14 16 18 18 17 16 16 16 13 9 6 4 4 3 2 1 1 2 2 1 0 0 0 0 0
15 13 10 7 5 4 5 6 6 7 7 5 4 3 5 10 12 12 14 16 18 19 17 16 18 18 16 13 10 7 5 5 3 1 0 1 1 0 0 0 0 0 0
18 16 15 13 10 8 7 7 9 11 12 9 5 3 5 10 14 15 15 16 17 17 17 18 19 18 15 14 14 13 11 8 5 3 1 0 0 0 0 0 0 0 0
17 17 17 16 13 11 10 11 13 16 15 11 6 4 5 8 12 16 17 16 14 14 16 21 22 20 15 12 13 16 15 12 9 6 3 1 0 0 0 0 0 0 0
19 18 17 15 13 12 14 15 16 16 13 8 6 4 4 6 8 10 13 14 13 14 16 19 22 23 19 12 9 10 13 13 12 10 7 2 0 0 0 0 0 0 0
22 22 20 18 16 15 16 17 17 14 10 7 6 5 5 5 6 6 8 12 16 15 12 12 16 21 20 16 11 8 8 9 10 11 9 5 2 0 0 0 0 0 0
25 25 25 24 22 20 16 14 13 11 9 7 6 6 6 6 6 6 7 10 15 14 9 7 10 16 20 20 18 14 8 6 7 8 8 7 5 2 0 0 0 0 0
27 26 27 29 29 24 18 13 10 9 9 9 8 7 6 6 5 5 5 7 10 10 9 7 8 12 18 21 20 16 10 5 4 5 5 6 5 4 1 0 0 0 0
29 27 27 31 33 28 24 19 13 11 11 12 10 9 7 6 5 5 4 4 5 8 9 8 7 9 14 16 14 11 9 4 1 2 2 3 4 4 2 1 0 0 0
32 29 29 33 34 30 26 23 19 17 15 14 13 11 10 8 6 6 6 5 5 8 9 8 7 8 10 11 8 6 5 3 1 0 1 1 2 2 2 1 0 0 0
31 32 34 35 34 29 24 23 22 21 19 16 14 13 12 10 9 9 9 8 8 8 8 6 6 7 9 9 6 3 2 1 0 0 0 0 1 1 1 0 0 0 0
29 34 38 38 34 28 25 24 23 21 20 19 16 13 13 12 12 12 12 12 11 10 7 6 5 6 7 6 4 3 2 1 0 0 0 0 0 0 0 0 0 0 0
30 34 38 38 34 28 25 25 23 20 19 20 18 15 14 14 15 15 15 15 15 11 8 6 5 4 4 4 4 4 3 2 1 0 0 0 0 0 0 0 0 0 0
33 34 35 34 33 28 25 25 24 19 18 19 19 17 15 15 16 16 15 15 15 12 8 7 6 5 5 5 5 6 5 3 1 1 0 0 0 0 0 0 0 0 0
33 34 33 33 32 30 26 23 20 17 15 16 17 17 16 14 14 14 14 13 12 10 8 7 7 7 6 6 6 6 5 2 1 1 0 0 0 0 0 0 0 0 0
34 35 35 34 33 30 25 20 17 15 14 14 15 16 14 12 12 13 12 11 10 9 7 7 7 7 6 5 4 4 4 2 1 1 0 0 0 0 0 0 0 0 0
35 35 35 33 30 26 22 18 16 16 15 14 14 14 13 11 11 12 12 11 11 10 8 7 6 6 5 4 3 3 3 3 2 1 0 1 1 1 0 0 0 0 0
34 33 31 28 24 20 17 15 16 16 15 14 14 14 13 11 10 10 9 9 10 9 8 7 6 4 4 4 4 3 3 3 3 2 2 2 2 1 0 0 0 0 0
30 29 26 22 19 15 12 11 13 16 16 15 15 15 12 9 7 6 6 6 6 6 6 6 4 3 3 4 4 4 3 2 2 2 2 2 1 1 0 0 0 0 0
27 26 23 18 15 11 7 5 9 14 16 16 15 14 11 7 5 5 5 5 4 4 4 4 3 2 2 3 4 3 1 1 0 1 1 1 0 0 0 0 0 0 0
28 25 20 14 10 7 4 2 4 9 13 14 13 11 10 7 5 5 5 5 5 5 4 3 2 1 1 2 2 1 0 0 0 0 1 1 0 0 0 0 0 0 0
25 20 15 11 7 5 3 1 2 5 8 9 9 8 7 5 3 3 3 4 5 5 4 2 1 1 0 0 0 0 0 0 0 1 2 1 0 0 0 0 0 0 0
21 16 12 9 7 5 3 1 1 3 5 6 6 5 5 4 2 1 2 3 4 5 3 1 0 0 0 0 0 0 0 0 0 1 2 1 0 0 0 0 0 0 0

GEFSMA_con_prob3kmehi_228.txt.gz
EHI
0 0 0 0 0 0 0 0 0 0 0 0 0 0 0 0 0 0 4 13 17 14 10 8 7 5 5 2 1 1 1 1 0 0 0 0 0 0 1 2 2 1 0
0 0 0 0 0 0 0 0 0 0 0 0 0 0 0 0 0 0 2 8 14 15 14 11 8 7 6 4 3 1 1 0 0 0 0 0 0 0 0 1 1 0 1
0 0 1 0 0 0 0 0 0 0 0 0 0 0 0 0 0 0 1 3 8 12 15 13 11 9 8 8 6 4 2 1 1 1 1 1 0 0 0 0 0 0 1
0 0 0 0 0 0 0 0 0 0 0 0 0 0 0 0 0 0 0 1 3 6 9 12 12 11 12 11 9 7 5 4 3 2 2 1 0 0 0 0 0 0 1
0 0 0 0 0 0 0 0 0 0 0 0 0 0 0 0 0 0 0 0 0 1 3 7 9 11 11 11 9 7 5 5 4 3 1 1 0 0 0 0 0 0 0
1 1 1 0 0 0 0 0 0 0 0 0 0 0 0 0 0 0 0 0 0 0 0 2 4 6 7 7 7 5 4 3 2 1 0 0 0 0 0 0 0 0 0
3 3 3 1 1 0 0 0 0 0 0 0 1 1 0 0 0 0 0 0 0 0 0 0 0 1 2 4 4 4 3 2 1 1 0 0 0 0 0 0 0 0 0
4 5 4 3 2 1 0 0 0 0 1 1 2 2 1 1 0 0 0 0 0 0 0 0 0 0 0 1 1 2 3 3 2 2 2 1 0 0 0 0 0 0 0
4 5 4 3 2 1 0 0 1 1 2 3 3 3 3 2 1 1 0 0 0 0 0 0 0 0 0 0 0 1 2 4 4 5 5 3 2 1 0 0 0 0 0
5 6 5 3 1 0 1 1 2 3 3 3 3 3 3 3 2 1 0 0 0 0 0 0 1 0 0 0 0 0 1 2 3 5 6 5 5 3 2 0 0 0 0
5 5 5 4 2 1 2 3 3 3 3 3 3 3 3 3 3 2 1 1 0 0 0 0 0 0 0 0 0 0 0 0 1 3 4 5 5 5 3 1 0 0 0
4 4 5 5 4 3 3 3 3 3 3 3 3 3 3 3 3 3 2 1 0 0 0 0 0 0 0 0 0 1 1 0 0 1 1 3 3 3 2 0 0 0 0
3 3 4 4 5 5 4 3 3 3 3 3 3 3 3 3 3 3 2 1 0 0 0 0 0 0 0 0 0 1 1 0 0 0 0 1 1 1 0 0 0 0 0
4 4 4 4 5 6 5 4 3 3 3 3 3 4 3 3 3 2 1 1 0 0 0 0 0 0 0 0 0 0 0 0 0 0 0 0 0 0 0 0 0 0 0
4 4 3 4 6 7 7 6 5 4 4 4 4 5 4 4 3 2 1 0 0 0 0 0 0 0 0 0 0 0 0 0 0 0 0 0 0 0 0 0 0 0 0
5 4 4 6 7 8 9 8 7 6 6 6 6 6 6 6 5 5 3 1 1 2 1 1 1 0 0 0 0 0 0 0 0 0 0 0 0 0 0 0 0 0 0
7 6 6 7 8 10 11 9 8 7 7 6 6 6 6 6 6 6 5 3 3 3 3 2 2 1 0 0 0 0 0 0 0 0 0 0 0 0 0 0 0 0 0
7 7 7 8 9 11 10 8 6 6 6 6 6 6 6 6 6 6 5 4 3 3 3 3 2 1 0 0 0 0 0 0 0 0 0 0 0 0 0 0 0 0 0
8 8 8 8 9 9 8 6 5 4 4 5 6 5 5 6 7 6 4 4 4 3 3 3 3 2 2 1 0 0 0 0 0 0 0 0 0 0 0 0 0 0 0
8 8 9 8 7 6 5 4 4 3 3 3 4 5 5 5 6 5 4 4 4 4 3 3 3 3 3 2 1 0 0 0 0 0 0 0 0 0 0 0 0 0 0
7 7 8 7 5 4 3 3 3 2 2 2 4 5 5 5 5 4 3 3 4 3 3 3 2 2 2 2 1 0 0 0 0 0 0 0 0 0 0 0 0 0 0
6 6 7 8 6 4 2 1 1 2 2 2 3 4 3 3 3 3 3 3 3 2 2 1 1 1 1 1 1 1 0 0 0 0 0 0 0 0 0 0 0 0 0
8 6 6 7 6 3 1 0 0 1 1 1 1 2 1 1 1 2 2 2 1 1 1 0 0 0 0 1 2 2 1 0 0 0 0 0 0 0 0 0 0 0 0
7 6 5 5 4 2 1 0 0 0 0 0 0 1 1 0 0 1 1 1 0 0 0 0 0 0 0 1 2 2 1 0 0 0 0 0 0 0 0 0 0 0 0
5 4 3 3 4 3 1 0 0 0 0 0 0 0 1 0 0 0 0 0 0 0 0 0 0 0 0 0 1 1 0 0 0 0 0 0 0 0 0 0 0 0 0
3 3 3 4 5 4 2 1 0 0 0 0 0 0 1 0 0 0 0 0 0 0 0 0 0 0 0 0 0 0 0 0 0 0 0 0 0 0 0 0 0 0 0

GEFSMA_con_prob3kmehi_234.txt.gz
EHI
0 0 0 0 0 0 0 0 0 0 0 0 0 0 0 0 0 0 0 1 2 4 4 4 5 5 4 4 4 4 2 0 0 0 0 0 0 0 0 0 0 0 0
0 0 0 0 0 0 0 0 0 0 0 0 0 0 0 0 0 0 0 1 2 4 5 5 6 6 4 3 4 5 3 1 0 0 0 0 0 0 0 0 0 0 0
0 0 0 0 0 0 0 0 0 0 0 0 0 0 0 0 0 1 1 0 1 3 5 7 8 8 5 4 4 5 4 2 1 0 0 0 0 0 0 0 0 0 0
0 0 1 1 1 0 0 0 0 0 0 0 0 0 0 0 1 1 1 0 0 1 2 5 8 9 8 5 4 4 3 1 1 1 0 0 0 0 0 0 0 0 0
1 1 2 2 1 0 0 0 0 0 0 0 0 0 0 1 1 1 1 0 0 0 1 3 6 8 8 6 6 5 4 2 1 1 1 1 0 0 0 0 0 0 0
1 2 3 2 1 0 0 0 0 0 0 0 0 0 0 1 1 0 0 0 0 0 0 1 2 3 4 5 5 5 5 4 3 3 2 2 1 0 0 0 0 0 0
1 2 2 2 1 0 0 0 0 0 0 1 1 1 1 1 0 0 0 0 0 0 0 0 0 0 1 1 2 3 5 5 5 4 3 3 2 1 0 0 0 0 0
0 1 1 1 0 0 0 0 0 0 1 2 2 2 2 1 1 1 1 1 0 0 0 0 0 0 0 0 0 1 3 4 5 4 3 3 2 2 1 0 0 0 0
0 0 0 0 0 0 0 0 0 1 2 3 3 3 3 3 2 3 2 1 0 0 0 0 0 0 0 0 0 0 1 3 4 4 2 1 2 3 2 1 0 0 0
0 0 0 0 0 0 0 0 1 2 3 3 3 3 3 3 3 3 3 1 0 0 0 0 0 0 0 0 0 0 0 1 1 1 1 1 2 3 3 1 1 0 0
0 0 0 0 0 0 0 1 1 3 3 3 3 3 3 3 3 3 3 2 1 0 0 0 0 0 0 0 0 0 0 0 0 0 0 1 2 3 3 3 2 1 1
0 0 0 0 0 1 1 2 3 3 3 3 3 3 3 3 3 3 3 3 2 1 0 0 0 0 0 0 0 0 0 0 0 0 0 0 1 2 2 2 2 2 2
0 0 1 1 1 2 3 3 3 3 3 3 3 3 3 3 3 3 4 4 3 1 0 0 0 0 0 0 0 0 0 0 0 0 0 0 0 1 1 1 1 1 2
1 1 2 2 3 3 3 3 3 3 3 3 3 3 3 4 4 5 5 5 4 2 1 1 0 0 0 0 0 0 0 0 0 0 0 0 0 0 0 0 0 0 1
2 2 2 2 3 3 3 3 2 2 2 2 2 3 3 5 6 6 6 6 5 3 3 2 1 0 0 0 0 0 0 0 0 0 0 0 0 0 0 0 0 0 0
2 2 1 1 1 2 2 1 1 1 1 1 1 1 2 3 4 5 6 6 5 5 4 3 2 1 1 1 0 0 0 0 0 0 0 0 0 0 0 0 0 0 0
1 1 0 0 0 1 1 1 1 0 0 0 0 0 1 1 2 3 4 4 5 5 4 3 3 3 2 2 1 0 0 0 0 0 0 0 0 0 0 0 0 0 0
0 0 0 0 0 0 0 1 1 0 0 1 1 1 0 1 2 3 4 4 5 4 4 3 3 3 3 2 1 0 0 0 0 0 0 0 0 0 0 0 0 0 0
0 1 1 1 0 0 0 1 1 0 0 1 2 1 1 2 4 5 6 5 5 4 3 3 3 3 3 3 1 1 1 0 0 0 0 0 0 0 0 0 0 0 0
1 1 1 1 0 0 0 0 0 0 0 1 1 2 2 3 4 5 5 5 4 3 3 3 3 3 3 3 3 2 2 1 0 1 0 0 0 0 0 0 0 0 0
2 2 1 0 0 0 0 0 0 1 1 1 1 2 2 2 2 2 2 3 2 1 2 2 2 2 3 3 3 2 2 1 0 0 0 0 0 0 0 0 0 0 0
2 1 0 0 0 0 0 0 0 2 2 2 1 1 1 1 1 0 0 1 0 0 1 1 2 1 1 2 1 1 1 1 0 0 0 0 0 0 0 0 0 0 0
2 2 1 1 1 0 0 0 0 1 1 1 0 0 0 0 0 0 0 0 0 0 0 1 2 1 1 0 0 0 0 0 0 0 0 0 0 0 0 0 0 0 0
3 3 2 3 2 1 0 0 0 0 0 0 0 0 0 0 0 0 0 0 0 0 0 1 1 1 0 0 0 0 0 0 0 0 0 0 0 0 0 0 0 0 0
4 4 5 5 4 2 0 0 0 0 0 0 0 0 0 0 0 0 0 0 0 0 0 0 0 0 0 0 0 0 0 0 0 0 0 0 0 0 0 0 0 0 0
4 5 6 6 5 3 1 0 0 0 1 1 1 0 0 0 0 0 0 0 0 0 0 0 0 0 0 0 0 0 0 0 0 0 0 0 0 0 0 0 0 0 0

GEFSMA_con_prob3kmehi_240.txt.gz
EHI
0 1 2 2 1 0 0 0 0 1 2 2 1 1 1 1 1 2 3 5 5 5 5 4 3 3 4 4 3 2 2 3 2 1 0 0 0 0 0 0 0 0 0
2 2 3 4 3 1 1 1 0 0 1 1 2 2 2 2 2 3 3 4 5 6 6 4 3 3 2 1 1 1 1 2 2 1 0 0 0 0 0 0 0 0 0
5 5 5 6 6 4 3 2 1 0 0 0 2 3 3 3 3 3 3 3 4 5 6 5 3 2 1 0 0 0 1 1 1 0 0 0 0 0 0 0 0 0 0
7 6 6 6 6 5 4 3 2 1 1 1 2 3 3 3 3 3 3 3 3 4 5 6 5 4 3 1 1 1 1 2 1 0 0 0 0 0 0 0 0 0 0
8 7 5 4 4 4 3 2 2 3 3 3 3 3 3 3 3 3 3 4 4 4 5 6 6 5 4 2 1 1 1 1 1 0 0 0 0 0 0 0 0 0 0
8 7 4 3 2 3 3 2 2 4 6 6 4 3 4 3 4 4 5 5 5 5 7 8 8 5 3 1 1 0 0 0 0 0 0 0 0 0 0 0 0 0 0
6 5 3 2 1 1 1 1 2 3 5 6 6 5 4 4 4 5 6 6 6 6 7 9 10 7 3 1 0 1 1 0 0 0 0 0 0 0 0 0 0 0 0
5 4 3 2 1 0 0 0 1 2 3 5 6 6 5 4 5 5 6 6 8 8 8 9 10 8 6 3 2 2 1 0 0 0 0 0 0 0 0 0 0 0 0
6 5 3 2 1 0 0 0 1 3 3 4 6 7 6 5 6 6 6 7 10 11 10 8 7 7 7 6 4 2 1 0 0 0 0 0 0 0 0 0 0 0 0
10 8 3 1 0 0 0 0 1 3 4 5 6 7 8 7 7 6 5 6 8 10 11 8 6 7 7 6 6 4 2 1 0 0 0 0 0 1 1 1 1 0 0
13 9 3 0 1 2 2 2 3 4 4 5 6 8 9 9 7 6 5 5 5 7 8 8 7 8 7 6 6 5 4 1 0 0 0 0 1 2 2 2 2 1 0
12 8 3 0 1 3 4 4 5 6 6 6 7 7 8 7 7 6 6 5 5 5 7 7 8 8 8 7 6 5 3 1 0 0 0 0 1 2 3 3 2 1 0
10 7 3 1 2 2 3 4 4 6 7 7 7 6 5 5 5 5 6 5 4 5 6 6 6 7 7 7 5 4 2 1 0 0 0 0 0 1 2 3 2 1 0
9 6 4 3 3 2 3 3 3 3 4 5 4 4 4 5 4 4 5 4 3 4 5 6 6 6 6 6 4 3 3 1 0 0 0 0 0 0 1 1 2 1 1
9 7 5 4 4 4 4 3 3 2 3 4 4 5 5 5 4 4 4 4 4 5 5 6 6 5 4 3 3 3 3 2 0 0 0 0 0 0 0 0 1 1 0
11 9 6 4 3 5 5 4 3 3 4 6 7 7 6 5 5 5 5 6 8 8 7 6 5 4 3 3 2 2 2 1 0 0 0 0 0 0 0 0 0 0 0
11 10 8 5 4 4 5 4 4 3 4 6 7 8 7 5 6 6 6 9 12 12 9 5 4 3 4 4 2 1 1 1 0 0 0 0 0 0 0 0 0 0 0
12 11 9 8 6 5 4 4 4 5 5 6 6 7 6 5 5 6 7 10 13 12 8 5 3 3 3 3 2 0 0 1 0 0 0 0 0 0 0 0 0 0 0
15 14 13 11 9 7 5 5 6 7 7 6 6 6 6 6 5 5 7 9 10 8 7 4 3 2 1 1 1 1 1 2 1 1 0 0 0 0 0 0 0 0 0
18 17 15 13 11 9 8 8 8 8 7 5 4 3 4 4 5 5 6 7 7 5 4 3 2 1 1 1 2 2 2 3 3 2 1 0 0 0 0 0 0 0 0
17 16 14 13 12 10 8 8 7 6 5 3 2 1 1 1 2 3 4 4 5 5 4 3 1 1 2 3 4 2 1 3 4 3 2 1 0 0 0 0 0 0 0
16 14 14 14 14 10 6 4 4 3 3 2 2 1 1 1 1 1 1 1 2 3 4 4 2 2 2 4 4 2 1 2 4 3 2 1 1 0 0 0 0 0 0
16 15 15 17 16 10 5 2 2 2 3 3 4 4 3 3 2 2 1 0 1 2 3 3 3 2 2 3 4 3 2 2 3 2 1 1 1 0 0 0 0 0 0
16 16 17 18 16 10 5 2 2 3 5 6 6 6 5 4 3 2 1 0 0 1 2 2 2 1 1 2 3 3 2 2 2 1 0 1 1 0 0 1 0 0 0
16 16 16 15 13 8 4 2 2 4 6 6 6 6 5 4 2 1 1 0 0 1 1 1 1 0 0 1 1 1 1 1 1 0 0 0 0 0 0 1 1 0 0
15 14 13 13 11 7 4 2 2 5 6 6 6 5 3 2 1 0 0 0 0 1 1 1 0 0 0 0 0 1 0 0 0 0 0 0 0 0 1 2 2 1 0

GEFSMA_con_prob3kmehi_246.txt.gz
EHI
6 6 8 8 5 4 5 7 7 4 4 5 5 5 5 4 3 4 8 13 14 14 13 11 8 6 4 3 3 3 3 3 2 2 1 0 0 0 0 0 0 0 0
7 7 9 10 7 5 7 9 8 6 6 6 6 6 6 5 4 4 8 11 13 13 13 12 10 7 5 4 3 3 3 2 1 1 0 0 0 0 0 0 0 0 0
9 9 10 11 9 9 11 12 10 9 8 7 8 8 8 7 5 5 7 9 10 11 11 11 11 8 6 5 4 2 1 1 0 0 0 0 0 0 0 0 0 0 0
11 12 12 12 11 11 11 10 10 11 12 11 11 11 10 9 7 7 7 7 9 9 10 11 11 8 7 6 5 2 1 0 0 0 0 0 0 0 0 0 0 0 0
13 13 13 12 12 11 9 6 6 10 14 14 12 11 12 11 10 9 8 7 9 11 12 12 12 10 9 7 5 3 2 1 0 0 0 0 0 0 0 0 0 0 0
14 13 12 12 12 11 8 5 5 9 13 13 10 9 10 11 11 9 7 6 8 11 13 13 12 12 10 8 5 3 3 3 2 1 1 1 0 0 0 0 0 0 0
18 16 16 16 15 11 7 5 6 9 11 11 9 7 7 7 8 8 7 6 5 8 10 12 13 13 11 8 5 5 5 5 5 4 3 2 1 0 0 0 0 0 0
22 20 21 21 17 12 9 7 7 9 10 9 8 7 5 5 5 6 7 5 5 7 9 11 13 14 13 10 8 8 8 8 8 7 5 4 3 1 0 0 0 0 0
24 23 21 20 16 13 11 9 8 8 8 7 6 5 4 4 4 5 5 6 7 8 8 7 9 13 13 12 11 10 9 9 9 9 7 6 5 3 2 0 0 0 0
23 22 20 18 16 15 14 13 11 9 7 6 5 4 4 4 4 4 5 6 7 7 6 5 6 10 12 13 14 12 9 8 9 9 9 7 6 6 4 2 0 0 0
24 23 22 20 19 18 17 17 17 15 10 6 5 4 4 3 2 3 4 5 6 6 5 5 6 9 12 14 14 12 9 7 7 8 9 8 8 7 6 3 1 0 1
27 26 26 25 22 19 17 18 21 20 15 10 7 5 4 3 2 2 3 4 4 5 6 7 7 8 11 12 10 9 8 6 4 4 6 7 7 7 7 6 3 1 2
28 29 29 27 23 18 16 17 20 20 18 14 10 7 6 4 2 1 2 3 3 4 5 6 7 6 7 8 7 7 7 5 2 1 2 2 3 5 6 5 3 1 2
28 29 29 26 21 17 17 19 20 19 16 15 13 12 10 6 3 3 4 4 3 2 3 4 5 5 4 5 6 6 6 3 1 0 0 0 0 1 2 2 1 0 1
26 26 26 24 19 17 17 18 18 16 15 16 17 17 15 11 8 6 7 7 4 2 3 4 5 5 4 3 3 4 5 3 1 0 0 0 0 0 0 0 0 0 0
23 23 22 21 18 15 15 15 14 14 15 17 18 18 17 16 12 9 8 9 7 4 4 5 5 5 4 3 3 5 6 4 2 1 0 0 0 0 0 0 0 0 0
23 22 21 19 16 13 13 14 13 14 15 16 16 17 16 15 15 11 7 7 7 6 5 5 5 5 4 3 5 7 7 4 2 1 0 0 0 0 0 0 0 0 0
25 23 21 19 16 14 15 16 14 14 14 13 12 13 13 13 15 13 8 6 6 5 4 4 5 5 4 4 6 7 5 2 1 1 0 0 0 0 0 0 0 0 0
25 23 22 21 19 18 18 17 15 13 12 11 10 9 10 11 12 10 8 5 4 4 5 5 6 6 5 5 5 5 2 0 0 0 0 0 0 0 0 0 0 0 0
26 24 24 24 23 20 18 16 14 12 10 10 10 8 7 7 7 6 5 5 5 5 6 6 6 6 6 6 5 3 1 0 0 0 0 0 0 0 0 0 0 0 0
27 26 26 25 23 19 15 14 13 10 8 9 9 7 5 4 3 3 2 3 4 5 6 6 6 6 6 6 5 3 1 0 0 0 0 0 0 0 0 0 0 0 0
29 28 26 23 19 14 10 9 10 9 8 8 6 4 3 3 3 2 1 1 2 3 5 5 5 5 5 5 4 1 0 0 0 0 0 0 0 0 0 0 0 0 0
31 30 27 23 17 12 7 5 6 8 9 7 5 4 4 4 5 4 3 1 1 1 2 3 4 3 3 3 2 1 0 0 0 0 0 0 0 0 0 0 0 0 0
31 31 29 26 19 11 5 2 4 9 10 6 4 4 5 5 5 5 4 2 1 0 1 2 2 2 1 1 1 0 0 0 0 0 0 0 0 0 0 0 0 0 0
31 31 30 28 20 11 4 1 5 10 9 5 4 4 3 3 2 2 1 1 1 1 1 1 1 1 0 0 0 0 0 0 0 0 0 0 0 0 0 0 0 0 0
32 31 30 28 21 10 3 1 4 10 10 5 3 3 2 1 0 0 0 0 0 1 1 1 1 0 0 0 0 0 0 0 0 0 0 0 0 0 0 0 0 0 0

GEFSMA_con_prob3kmehi_252.txt.gz
EHI
3 1 0 0 0 0 1 1 2 3 3 3 3 3 3 3 3 3 4 8 11 12 11 8 5 4 4 3 3 2 1 0 0 0 0 0 0 0 0 0 0 0 0
3 2 0 0 0 0 1 2 2 3 3 2 3 3 3 3 3 3 3 5 9 10 9 7 5 4 3 2 1 1 1 0 0 0 0 0 0 0 0 0 0 0 0
3 2 1 0 0 0 1 1 2 3 2 1 2 3 3 3 3 3 2 2 4 5 6 6 5 3 2 1 0 0 0 0 0 0 0 0 0 0 0 0 0 0 0
3 3 2 1 0 0 0 0 1 2 2 2 2 3 3 3 3 2 1 1 1 2 4 6 5 4 3 2 1 0 0 0 0 0 0 0 0 0 0 0 0 0 0
5 4 2 1 1 1 0 0 0 1 2 3 3 3 3 3 2 1 1 1 2 3 4 5 5 5 4 3 1 1 1 1 0 0 0 0 0 0 0 0 0 0 0
7 4 2 1 2 1 0 0 0 0 1 3 4 3 3 2 1 0 1 2 2 3 3 4 4 3 3 2 2 2 1 1 1 1 1 1 1 1 0 0 0 0 0
7 5 2 1 1 1 0 0 0 0 1 3 3 2 2 1 1 0 0 1 1 2 3 3 3 2 1 2 2 3 3 4 4 4 3 3 3 2 1 0 0 0 0
6 5 3 1 0 0 0 0 0 1 2 2 1 1 0 0 0 0 0 0 0 1 2 3 3 2 1 1 1 3 5 6 6 7 7 6 5 3 2 1 1 1 0
4 4 3 2 0 0 0 0 1 2 2 1 0 0 0 0 0 0 0 0 0 0 1 2 3 3 2 1 1 2 4 6 6 7 8 7 6 5 5 4 3 2 1
3 2 3 2 1 0 0 0 1 1 1 0 0 0 0 0 0 0 0 0 0 0 0 1 2 3 3 3 2 3 3 4 5 6 7 8 7 6 6 5 3 3 3
3 2 2 2 1 1 2 2 1 0 0 0 0 0 0 0 0 0 0 0 0 0 0 0 1 1 2 3 3 4 4 3 2 4 6 7 7 6 6 5 3 2 2
5 4 2 1 2 3 4 3 1 0 0 0 0 0 0 0 0 0 0 0 0 0 0 0 0 0 1 1 2 3 4 3 1 2 3 4 5 5 4 3 2 1 1
6 6 3 2 4 5 5 3 1 1 1 1 1 1 0 0 0 0 0 0 0 0 0 0 0 0 0 0 1 2 3 3 1 1 1 1 2 3 3 2 1 0 0
6 6 5 5 5 5 4 3 2 2 2 2 2 1 0 0 0 0 0 0 0 0 0 0 0 0 0 0 0 1 2 1 1 0 0 0 0 1 2 1 0 0 0
7 7 7 7 7 5 3 2 1 1 1 1 1 1 0 0 0 0 0 0 0 0 0 0 0 0 0 0 0 0 1 1 0 0 0 0 0 0 1 1 0 0 0
8 9 9 9 7 4 2 1 1 1 1 1 0 0 1 1 0 0 0 0 0 0 0 0 0 0 0 0 0 0 0 0 0 0 0 0 0 0 0 0 0 0 0
9 10 11 10 7 5 3 2 2 2 2 2 1 1 2 2 1 0 0 0 0 0 0 0 0 0 0 0 0 0 0 0 0 0 0 0 0 0 0 0 0 0 0
9 10 12 11 7 5 4 3 1 1 2 3 3 3 3 3 1 1 0 0 0 0 0 0 0 0 0 0 0 0 0 0 0 0 0 0 0 0 0 0 0 0 0
9 10 11 9 6 5 5 3 1 0 2 4 5 5 4 3 3 2 1 0 0 0 0 0 0 0 0 0 0 0 0 0 0 0 0 0 0 0 0 0 0 0 0
11 11 10 7 4 3 3 2 1 1 3 5 5 4 3 3 3 3 2 1 1 1 0 0 0 0 0 0 0 0 0 0 0 0 0 0 0 0 0 0 0 0 0
13 12 10 7 3 2 1 2 2 2 4 5 4 3 3 3 3 3 2 2 2 2 1 0 0 0 0 0 0 0 0 0 0 0 0 0 0 0 0 0 0 0 0
14 13 10 7 5 3 1 1 2 3 4 4 3 3 3 3 3 3 2 1 1 1 1 0 0 0 0 0 0 0 0 0 0 0 0 0 0 0 0 0 0 0 0
18 15 10 8 7 5 2 0 1 3 3 3 3 3 3 3 3 3 2 1 0 0 0 0 0 0 0 0 0 0 0 0 0 0 0 0 0 0 0 0 0 0 0
19 15 11 9 9 7 4 1 1 2 2 3 3 3 3 2 2 2 2 1 0 0 0 0 0 0 0 0 0 0 0 0 0 0 0 0 0 0 0 0 0 0 0
19 16 13 11 9 7 4 2 2 2 2 2 2 2 2 1 0 1 1 0 0 0 0 0 0 0 0 0 0 0 0 0 0 0 0 0 0 0 0 0 0 0 0
19 17 15 12 9 6 4 2 1 2 2 2 1 1 1 0 0 0 0 0 0 0 0 0 0 0 0 0 0 0 0 0 0 0 0 0 0 0 0 0 0 0 0